DW3624 Weather Reports


Display with metric or nautical units.
time (UTC)temp
F
wind
direction
speed
MPH
gust
MPH
rain 1hr
in
rain 24hr
in
rain mn
in
humidity
%
barometer
mb
20200529224714 74 235 3.0 0.0 0.00 0.00 0.00 64 1013.5
20200529223210 74 166 4.0 0.0 0.00 0.00 0.00 65 1013.7
20200529221620 74 252 2.0 0.0 0.00 0.00 0.00 64 1013.9
20200529220116 74 271 2.0 0.0 0.00 0.00 0.00 66 1014.0
20200529214621 73 228 2.0 0.0 0.00 0.00 0.00 68 1014.0
20200529213031 73 192 2.0 0.0 0.00 0.00 0.00 68 1014.0
20200529211533 72 102 3.0 0.0 0.00 0.00 0.00 69 1014.1
20200529210020 72 260 2.0 0.0 0.00 0.00 0.00 70 1014.3
20200529204527 71 85 1.0 0.0 0.00 0.00 0.00 71 1014.4
20200529203016 69 224 3.0 0.0 0.00 0.00 0.00 74 1014.6
20200529201517 69 224 2.0 0.0 0.00 0.00 0.00 74 1014.7
20200529200045 69 242 2.0 0.0 0.00 0.00 0.00 75 1014.9
20200529194523 68 203 2.0 0.0 0.00 0.00 0.00 77 1014.9
20200529193017 67 237 1.0 0.0 0.00 0.00 0.00 78 1015.0
20200529191541 67 190 2.0 0.0 0.00 0.00 0.00 78 1015.2
20200529190016 67 259 2.0 0.0 0.00 0.00 0.00 77 1015.3
20200529184525 67 229 2.0 0.0 0.00 0.00 0.00 78 1015.3
20200529183033 68 231 2.0 0.0 0.00 0.00 0.00 76 1015.3
20200529181513 67 208 2.0 0.0 0.00 0.00 0.00 77 1015.2
20200529180049 68 220 3.0 0.0 0.00 0.00 0.00 76 1015.3
20200529174532 68 251 3.0 0.0 0.00 0.00 0.00 76 1015.2
20200529173007 69 226 2.0 0.0 0.00 0.00 0.00 75 1014.9
20200529171512 68 193 2.0 0.0 0.00 0.00 0.00 77 1014.9
20200529170003 67 165 3.0 0.0 0.00 0.00 0.00 79 1014.9
20200529163058 65 226 1.0 0.0 0.00 0.00 0.00 83 1015.1
20200529161633 65 213 2.0 0.0 0.00 0.00 0.00 81 1015.4
20200529160145 64 209 2.0 0.0 0.00 0.00 0.00 82 1015.4
20200529154604 64 261 2.0 0.0 0.00 0.00 0.00 83 1015.2
20200529153203 64 255 1.0 0.0 0.00 0.00 0.00 82 1014.8
20200529151641 64 257 2.0 0.0 0.00 0.00 0.00 82 1014.7
20200529150101 64 221 2.0 0.0 0.00 0.00 0.00 82 1014.4
20200529144627 63 236 1.0 0.0 0.00 0.00 0.00 84 1014.0
20200529143056 63 164 1.0 0.0 0.00 0.00 0.00 84 1013.7
20200529141643 62 235 0.0 0.0 0.00 0.00 0.00 85 1013.6
20200529140116 62 235 1.0 0.0 0.00 0.00 0.00 85 1013.9
20200529134607 62 204 1.0 0.0 0.00 0.00 0.00 86 1013.7
20200529133055 62 180 0.0 0.0 0.00 0.00 0.00 86 1013.6
20200529131619 62 180 0.0 0.0 0.00 0.00 0.00 86 1013.6
20200529130054 61 180 0.0 0.0 0.00 0.00 0.00 86 1013.3
20200529124613 61 180 0.0 0.0 0.00 0.00 0.00 86 1013.2
20200529123100 61 175 0.0 0.0 0.00 0.00 0.00 87 1012.7
20200529121634 61 216 0.0 0.0 0.00 0.00 0.00 87 1012.8
20200529120105 61 216 0.0 0.0 0.00 0.00 0.00 87 1012.7
20200529114547 61 216 1.0 0.0 0.00 0.00 0.00 86 1012.3
20200529113050 61 153 1.0 0.0 0.00 0.00 0.00 86 1012.6
20200529111622 61 139 0.0 0.0 0.00 0.00 0.00 86 1012.7
20200529110056 61 218 1.0 0.0 0.00 0.00 0.00 86 1013.0
20200529104546 61 230 0.0 0.0 0.00 0.00 0.00 86 1013.0
20200529103045 61 248 0.0 0.0 0.00 0.00 0.00 86 1013.5
20200529101607 61 251 1.0 0.0 0.00 0.00 0.00 86 1013.0
20200529100115 61 221 1.0 0.0 0.00 0.00 0.00 86 1012.7
20200529094536 61 55 1.0 0.0 0.00 0.00 0.00 86 1012.9
20200529093034 61 230 0.0 0.0 0.00 0.00 0.00 86 1013.2
20200529091538 61 217 0.0 0.0 0.00 0.00 0.00 86 1013.1
20200529090135 61 217 1.0 0.0 0.00 0.00 0.00 85 1013.1
20200529084523 61 9 0.0 0.0 0.00 0.00 0.00 86 1013.0
20200529083039 61 295 0.0 0.0 0.00 0.00 0.00 86 1013.1
20200529081539 61 294 0.0 0.0 0.00 0.00 0.00 86 1013.3
20200529080029 61 224 0.0 0.0 0.00 0.00 0.00 86 1013.3
20200529074537 61 224 0.0 0.0 0.00 0.00 0.00 86 1013.3
20200529073018 61 224 1.0 0.0 0.00 0.00 0.00 85 1013.4
20200529071516 61 234 0.0 0.0 0.00 0.00 0.00 86 1013.6
20200529070022 61 234 0.0 0.0 0.00 0.00 0.00 86 1014.0
20200529064515 61 201 1.0 0.0 0.00 0.00 0.00 86 1014.0
20200529063036 61 201 1.0 0.0 0.00 0.00 0.00 85 1014.0
20200529061515 62 201 1.0 0.0 0.00 0.00 0.00 84 1013.9
20200529060051 62 189 0.0 0.0 0.00 0.00 0.00 84 1013.9
20200529054608 62 189 0.0 0.0 0.00 0.00 0.00 83 1014.0
20200529053031 63 189 1.0 0.0 0.00 0.00 0.00 82 1014.4
20200529051519 63 256 1.0 0.0 0.00 0.00 0.00 81 1014.7
20200529050022 64 236 2.0 0.0 0.00 0.00 0.00 80 1014.7
20200529044509 64 251 2.0 0.0 0.00 0.00 0.00 79 1014.7
20200529043016 65 234 1.0 0.0 0.00 0.00 0.00 77 1014.5
20200529041506 66 255 2.0 0.0 0.00 0.00 0.00 75 1014.4
20200529040012 67 170 2.0 0.0 0.00 0.00 0.00 73 1014.2
20200529034504 68 159 2.0 0.0 0.00 0.00 0.00 71 1013.9
20200529033130 69 241 1.0 0.0 0.00 0.00 0.00 70 1013.6
20200529031728 69 195 1.0 0.0 0.00 0.00 0.00 68 1013.3
20200529030134 70 200 1.0 0.0 0.00 0.00 0.00 68 1013.1
20200529024625 70 239 1.0 0.0 0.00 0.00 0.00 67 1013.0
20200529023245 71 255 3.0 0.0 0.00 0.00 0.00 66 1013.0
20200529021754 72 256 2.0 0.0 0.00 0.00 0.00 64 1012.8
20200529020209 73 214 2.0 0.0 0.00 0.00 0.00 63 1012.7
20200529014707 74 203 3.0 0.0 0.00 0.00 0.00 62 1012.6
20200529013152 74 251 2.0 0.0 0.00 0.00 0.00 61 1012.2
20200529011705 75 224 2.0 0.0 0.00 0.00 0.00 61 1012.4
20200529010154 75 230 3.0 0.0 0.00 0.00 0.00 60 1012.4
20200529004626 76 233 3.0 0.0 0.00 0.00 0.00 59 1012.3
20200529003133 76 232 4.0 0.0 0.00 0.00 0.00 58 1012.4
20200529001712 77 244 3.0 0.0 0.00 0.00 0.00 56 1012.3
20200529000154 78 266 3.0 0.0 0.00 0.00 0.00 55 1012.2
20200528234627 79 159 3.0 0.0 0.00 0.00 0.00 53 1012.2
20200528233142 80 234 5.0 0.0 0.00 0.00 0.00 51 1012.0
20200528231641 82 242 3.0 0.0 0.00 0.00 0.00 50 1012.0
20200528230122 82 209 3.0 0.0 0.00 0.00 0.00 49 1011.9